EW8711 Weather Reports


Display with metric or nautical units.
time (UTC)temp
F
wind
direction
speed
MPH
gust
MPH
rain 1hr
in
rain 24hr
in
rain mn
in
humidity
%
barometer
mb
20180923104524 59 45 0.0 0.0 0.00 0.00 0.00 86 1023.2
20180923104012 59 112 0.0 0.0 0.00 0.00 0.00 86 1023.2
20180923103455 59 45 0.0 0.0 0.00 0.00 0.00 86 1023.2
20180923102934 59 68 0.0 0.0 0.00 0.00 0.00 86 1023.2
20180923102423 59 90 0.0 0.0 0.00 0.00 0.00 86 1023.2
20180923101915 59 45 0.0 0.0 0.00 0.00 0.00 86 1023.3
20180923101404 59 45 0.0 0.0 0.00 0.00 0.00 85 1023.3
20180923100901 59 45 0.0 0.0 0.00 0.00 0.00 86 1023.4
20180923100345 59 68 0.0 0.0 0.00 0.00 0.00 87 1023.4
20180923095827 60 112 0.0 0.0 0.00 0.00 0.00 86 1023.6
20180923095316 60 112 0.0 0.0 0.00 0.00 0.00 86 1023.6
20180923094810 60 90 0.0 0.0 0.00 0.00 0.00 86 1023.6
20180923094250 60 68 0.0 0.0 0.00 0.00 0.00 86 1023.6
20180923093737 60 22 0.0 0.0 0.00 0.00 0.00 86 1023.6
20180923092652 60 112 0.0 0.0 0.00 0.00 0.00 86 1023.5
20180923091052 60 68 0.0 0.0 0.00 0.00 0.00 86 1023.5
20180923090549 60 68 0.0 0.0 0.00 0.00 0.00 86 1023.5
20180923090036 60 68 0.0 0.0 0.00 0.00 0.00 86 1023.5
20180923085457 60 90 0.0 0.0 0.00 0.00 0.00 86 1023.5
20180923084936 60 90 0.0 0.0 0.00 0.00 0.00 86 1023.5
20180923084427 60 22 0.0 0.0 0.00 0.00 0.00 86 1023.4
20180923083924 60 22 0.0 0.0 0.00 0.00 0.00 86 1023.4
20180923083341 60 0 0.0 0.0 0.00 0.00 0.00 86 1023.2
20180923082810 60 68 0.0 0.0 0.00 0.00 0.00 86 1023.2
20180923082259 60 68 0.0 0.0 0.00 0.00 0.00 86 1023.3
20180923081721 60 45 0.0 0.0 0.00 0.00 0.00 86 1023.3
20180923081157 60 45 0.0 0.0 0.00 0.00 0.00 87 1023.3
20180923080654 60 112 0.0 0.0 0.00 0.00 0.00 86 1023.4
20180923080153 60 90 0.0 0.0 0.00 0.00 0.00 86 1023.4
20180923075651 60 68 0.0 0.0 0.00 0.00 0.00 86 1023.5
20180923075124 60 22 0.0 0.0 0.00 0.00 0.00 86 1023.5
20180923074620 60 45 0.0 0.0 0.00 0.00 0.00 86 1023.3
20180923074059 60 112 0.0 0.0 0.00 0.00 0.00 87 1023.3
20180923073548 60 45 0.0 0.0 0.00 0.00 0.00 88 1023.3
20180923073041 60 90 0.0 0.0 0.00 0.00 0.00 88 1023.5
20180923072522 60 68 0.0 0.0 0.00 0.00 0.00 88 1023.5
20180923072023 60 90 0.0 0.0 0.00 0.00 0.00 88 1023.4
20180923071514 60 45 0.0 0.0 0.00 0.00 0.00 88 1023.4
20180923070935 60 45 0.0 0.0 0.00 0.00 0.00 88 1023.3
20180923070434 60 90 0.0 0.0 0.00 0.00 0.00 88 1023.3
20180923065925 60 68 0.0 0.0 0.00 0.00 0.00 88 1023.1
20180923065400 60 225 0.0 0.0 0.00 0.00 0.00 88 1023.1
20180923064837 60 0 0.0 0.0 0.00 0.00 0.00 88 1023.1
20180923064333 60 68 0.0 0.0 0.00 0.00 0.00 88 1023.3
20180923063826 60 68 0.0 0.0 0.00 0.00 0.00 88 1023.3
20180923063249 60 68 0.0 0.0 0.00 0.00 0.00 88 1023.4
20180923062728 60 68 0.0 0.0 0.00 0.00 0.00 88 1023.4
20180923062228 60 68 0.0 0.0 0.00 0.00 0.00 87 1023.4
20180923061713 59 68 0.0 0.0 0.00 0.00 0.00 87 1023.4
20180923061158 59 68 0.0 0.0 0.00 0.00 0.00 87 1023.4
20180923060648 59 45 0.0 0.0 0.00 0.00 0.00 88 1023.0
20180923060145 59 45 0.0 0.0 0.00 0.00 0.00 88 1023.0
20180923055645 59 45 0.0 0.0 0.00 0.00 0.00 88 1023.2
20180923055107 59 90 0.0 0.0 0.00 0.00 0.00 87 1023.2
20180923054549 59 68 0.0 0.0 0.00 0.00 0.00 87 1023.4
20180923054045 59 112 0.0 0.0 0.00 0.00 0.00 88 1023.4
20180923053530 59 112 0.0 0.0 0.00 0.00 0.00 88 1023.4
20180923053017 59 90 0.0 0.0 0.00 0.00 0.00 88 1023.4
20180923052517 59 45 0.0 0.0 0.00 0.00 0.00 88 1023.4
20180923051956 59 22 0.0 0.0 0.00 0.00 0.00 88 1023.4
20180923051438 59 90 0.0 0.0 0.00 0.00 0.00 88 1023.4
20180923050938 59 90 0.0 0.0 0.00 0.00 0.00 88 1023.4
20180923050429 59 90 0.0 0.0 0.00 0.00 0.00 88 1023.4
20180923045908 59 90 0.0 0.0 0.00 0.00 0.00 88 1023.5
20180923045350 59 90 0.0 0.0 0.00 0.00 0.00 88 1023.5
20180923044826 59 68 0.0 0.0 0.00 0.00 0.00 88 1023.5
20180923044319 59 90 0.0 0.0 0.00 0.00 0.00 88 1023.6
20180923043819 59 180 0.0 0.0 0.00 0.00 0.00 87 1023.6
20180923043256 59 112 0.0 0.0 0.00 0.00 0.00 87 1023.5
20180923042745 59 112 0.0 0.0 0.00 0.00 0.00 87 1023.5
20180923042208 59 158 0.0 0.0 0.00 0.00 0.00 87 1023.4
20180923041657 59 112 0.0 0.0 0.00 0.00 0.00 87 1023.4
20180923041147 59 112 0.0 0.0 0.00 0.00 0.00 87 1023.6
20180923040639 59 90 0.0 0.0 0.00 0.00 0.00 87 1023.6
20180923040121 59 112 0.0 0.0 0.00 0.00 0.00 87 1023.6
20180923035556 59 135 0.0 0.0 0.00 0.00 0.00 87 1023.4
20180923035046 59 158 0.0 0.0 0.00 0.00 0.00 87 1023.4
20180923034523 59 90 0.0 0.0 0.00 0.00 0.00 87 1023.4
20180923034016 60 112 0.0 0.0 0.00 0.00 0.00 87 1023.4
20180923033439 60 112 0.0 0.0 0.00 0.00 0.00 86 1023.5
20180923032931 60 112 0.0 0.0 0.00 0.00 0.00 86 1023.5
20180923032410 60 112 0.0 0.0 0.00 0.00 0.00 86 1023.5
20180923031908 60 202 0.0 0.0 0.00 0.00 0.00 86 1023.6
20180923031341 60 180 0.0 0.0 0.00 0.00 0.00 85 1023.6
20180923030833 60 45 0.0 0.0 0.00 0.00 0.00 84 1023.5
20180923030326 60 202 0.0 0.0 0.00 0.00 0.00 84 1023.5
20180923025750 60 180 0.0 0.0 0.00 0.00 0.00 84 1023.5
20180923025232 60 135 0.0 0.0 0.00 0.00 0.00 84 1023.5
20180923024711 60 202 0.0 0.0 0.00 0.00 0.00 84 1023.5
20180923024211 60 202 0.0 0.0 0.00 0.00 0.00 84 1023.5
20180923023650 60 202 0.0 0.0 0.00 0.00 0.00 84 1023.5
20180923023145 60 112 0.0 0.0 0.00 0.00 0.00 84 1023.5
20180923022635 61 112 0.0 0.0 0.00 0.00 0.00 84 1023.5
20180923022112 61 112 0.0 0.0 0.00 0.00 0.00 84 1023.5
20180923021604 61 112 0.0 0.0 0.00 0.00 0.00 83 1023.5
20180923021046 61 112 0.0 0.0 0.00 0.00 0.00 83 1023.6
20180923020533 61 338 0.0 0.0 0.00 0.00 0.00 82 1023.6
20180923020029 61 338 0.0 0.0 0.00 0.00 0.00 82 1023.6
20180923015509 61 135 0.0 0.0 0.00 0.00 0.00 82 1023.4
20180923015010 61 112 0.0 0.0 0.00 0.00 0.00 82 1023.4
20180923014501 62 180 0.0 0.0 0.00 0.00 0.00 81 1023.4
20180923013942 62 180 0.0 0.0 0.00 0.00 0.00 81 1023.4
20180923013439 62 135 0.0 0.0 0.00 0.00 0.00 81 1023.4
20180923012912 62 135 0.0 0.0 0.00 0.00 0.00 81 1023.4
20180923012348 62 135 0.0 0.0 0.00 0.00 0.00 81 1023.4
20180923011828 62 248 0.0 0.0 0.00 0.00 0.00 81 1023.4
20180923011308 62 112 0.0 0.0 0.00 0.00 0.00 80 1023.4
20180923010757 62 292 0.0 0.0 0.00 0.00 0.00 80 1023.4
20180923010253 63 112 0.0 0.0 0.00 0.00 0.00 80 1023.4
20180923005738 63 112 0.0 0.0 0.00 0.00 0.00 80 1023.4
20180923005150 63 112 0.0 0.0 0.00 0.00 0.00 80 1023.4
20180923004639 63 68 0.0 0.0 0.00 0.00 0.00 79 1023.2
20180923004126 63 90 0.0 0.0 0.00 0.00 0.00 80 1023.2
20180923003615 63 90 0.0 0.0 0.00 0.00 0.00 81 1023.2
20180923003053 63 90 0.0 0.0 0.00 0.00 0.00 80 1023.0
20180923002539 63 90 0.0 0.0 0.00 0.00 0.00 80 1023.0
20180923002024 63 45 0.0 0.0 0.00 0.00 0.00 80 1022.8
20180923001513 63 90 0.0 0.0 0.00 0.00 0.00 80 1022.8
20180923000944 63 112 0.0 0.0 0.00 0.00 0.00 80 1022.9
20180923000445 63 90 0.0 0.0 0.00 0.00 0.00 80 1022.9
20180922235924 63 112 0.0 0.0 0.00 0.00 0.00 80 1022.9
20180922235417 63 135 0.0 0.0 0.00 0.00 0.00 80 1023.1
20180922234914 63 112 0.0 0.0 0.00 0.00 0.00 80 1023.1
20180922234359 63 112 0.0 0.0 0.00 0.00 0.00 80 1023.0
20180922233832 63 112 0.0 0.0 0.00 0.00 0.00 79 1023.0
20180922233330 63 135 0.0 0.0 0.00 0.00 0.00 79 1023.1
20180922232802 64 158 0.0 0.0 0.00 0.00 0.00 79 1023.1
20180922232245 64 180 0.0 0.0 0.00 0.00 0.00 78 1022.9
20180922231730 64 202 0.0 0.0 0.00 0.00 0.00 78 1022.9
20180922231230 64 180 0.0 0.0 0.00 0.00 0.00 78 1022.9
20180922230720 64 135 0.0 0.0 0.00 0.00 0.00 78 1022.9
20180922230218 64 180 0.0 0.0 0.00 0.00 0.00 78 1022.9
20180922225652 64 158 0.0 0.0 0.00 0.00 0.00 78 1022.7
20180922225117 65 202 0.0 0.0 0.00 0.00 0.00 78 1022.7
20180922224609 65 180 0.0 0.0 0.00 0.00 0.00 77 1022.6
20180922224049 65 112 0.0 0.0 0.00 0.00 0.00 76 1022.6
20180922223528 65 158 0.0 0.0 0.00 0.00 0.00 76 1022.6
20180922223007 65 180 0.0 0.0 0.00 0.00 0.00 76 1022.6
20180922222446 65 225 0.0 0.0 0.00 0.00 0.00 74 1022.6
20180922221936 65 158 0.0 0.0 0.00 0.00 0.00 75 1022.4
20180922221414 66 158 0.0 0.0 0.00 0.00 0.00 76 1022.4
20180922220851 66 158 0.0 0.0 0.00 0.00 0.00 74 1022.4
20180922220348 66 90 0.0 0.0 0.00 0.00 0.00 74 1022.4
20180922215821 66 158 0.0 2.0 0.00 0.00 0.00 74 1022.4
20180922215318 66 68 0.0 2.0 0.00 0.00 0.00 74 1022.4
20180922214809 66 90 0.0 3.0 0.00 0.00 0.00 74 1022.4
20180922214308 66 158 1.0 4.0 0.00 0.00 0.00 71 1022.3
20180922213735 67 225 1.0 4.0 0.00 0.00 0.00 72 1022.3
20180922213206 67 158 1.0 3.0 0.00 0.00 0.00 71 1022.3
20180922212658 67 158 0.0 4.0 0.00 0.00 0.00 73 1022.3
20180922212148 67 225 0.0 4.0 0.00 0.00 0.00 71 1022.4
20180922211628 68 112 1.0 5.0 0.00 0.00 0.00 70 1022.4
20180922211126 68 22 2.0 5.0 0.00 0.00 0.00 68 1022.4
20180922210613 68 225 1.0 3.0 0.00 0.00 0.00 69 1022.1
20180922210055 68 22 1.0 5.0 0.00 0.00 0.00 69 1022.1
20180922205541 68 225 1.0 5.0 0.00 0.00 0.00 68 1021.9
20180922205024 69 270 1.0 4.0 0.00 0.00 0.00 68 1021.9
20180922204523 69 135 0.0 2.0 0.00 0.00 0.00 70 1021.7
20180922204016 69 180 0.0 2.0 0.00 0.00 0.00 67 1021.7
20180922203509 70 202 0.0 3.0 0.00 0.00 0.00 68 1021.7
20180922202946 70 45 1.0 4.0 0.00 0.00 0.00 66 1021.7
20180922202437 70 270 2.0 4.0 0.00 0.00 0.00 66 1021.7
20180922201917 71 158 0.0 5.0 0.00 0.00 0.00 66 1021.7
20180922201414 71 158 2.0 5.0 0.00 0.00 0.00 64 1021.7
20180922200908 72 158 0.0 5.0 0.00 0.00 0.00 65 1021.7
20180922200358 72 180 2.0 5.0 0.00 0.00 0.00 63 1021.7
20180922195835 73 45 2.0 4.0 0.00 0.00 0.00 62 1021.6
20180922195304 73 270 2.0 4.0 0.00 0.00 0.00 62 1021.6
20180922194755 74 45 2.0 4.0 0.00 0.00 0.00 61 1021.6
20180922194241 73 112 1.0 4.0 0.00 0.00 0.00 61 1021.6
20180922193738 72 180 1.0 4.0 0.00 0.00 0.00 63 1021.6
20180922193226 72 112 2.0 5.0 0.00 0.00 0.00 65 1021.6
20180922192709 72 180 1.0 5.0 0.00 0.00 0.00 63 1021.6
20180922192209 73 22 2.0 5.0 0.00 0.00 0.00 62 1021.5
20180922191700 73 158 2.0 5.0 0.00 0.00 0.00 60 1021.5
20180922191156 75 22 2.0 5.0 0.00 0.00 0.00 58 1021.5
20180922190630 76 112 2.0 4.0 0.00 0.00 0.00 57 1021.5
20180922190125 75 90 2.0 6.0 0.00 0.00 0.00 62 1021.5
20180922185623 75 180 3.0 7.0 0.00 0.00 0.00 60 1021.2
20180922185108 74 22 3.0 7.0 0.00 0.00 0.00 61 1021.2
20180922184551 74 180 2.0 4.0 0.00 0.00 0.00 64 1021.1
20180922184042 75 180 2.0 4.0 0.00 0.00 0.00 64 1021.1
20180922183532 75 248 1.0 6.0 0.00 0.00 0.00 62 1021.1
20180922183026 75 202 2.0 6.0 0.00 0.00 0.00 62 1021.1
20180922182515 76 180 3.0 6.0 0.00 0.00 0.00 62 1021.1
20180922181445 74 225 1.0 5.0 0.00 0.00 0.00 63 1021.1
20180922180943 74 248 1.0 5.0 0.00 0.00 0.00 62 1021.0
20180922180431 74 202 1.0 3.0 0.00 0.00 0.00 63 1021.0
20180922175926 74 45 1.0 5.0 0.00 0.00 0.00 63 1021.2
20180922175427 74 135 2.0 5.0 0.00 0.00 0.00 63 1021.2
20180922174920 73 135 1.0 4.0 0.00 0.00 0.00 65 1021.2
20180922174400 73 112 1.0 4.0 0.00 0.00 0.00 66 1021.3
20180922173855 74 68 2.0 4.0 0.00 0.00 0.00 62 1021.3
20180922173345 74 112 2.0 5.0 0.00 0.00 0.00 62 1021.3
20180922172839 74 158 3.0 7.0 0.00 0.00 0.00 63 1021.3
20180922172332 74 68 2.0 7.0 0.00 0.00 0.00 68 1021.3
20180922171820 74 135 1.0 3.0 0.00 0.00 0.00 66 1021.3
20180922171303 74 180 0.0 3.0 0.00 0.00 0.00 68 1021.3
20180922170749 74 112 1.0 4.0 0.00 0.00 0.00 64 1021.3
20180922170247 74 248 2.0 5.0 0.00 0.00 0.00 65 1021.3
20180922165717 74 68 2.0 5.0 0.00 0.00 0.00 65 1021.4
20180922165208 74 180 1.0 4.0 0.00 0.00 0.00 68 1021.4
20180922164652 75 112 1.0 2.0 0.00 0.00 0.00 64 1021.4
20180922164141 75 45 1.0 2.0 0.00 0.00 0.00 66 1021.4
20180922163637 75 248 1.0 3.0 0.00 0.00 0.00 68 1021.4
20180922163132 75 158 1.0 3.0 0.00 0.00 0.00 65 1021.2
20180922162623 75 112 1.0 3.0 0.00 0.00 0.00 68 1021.2
20180922162112 76 112 0.0 3.0 0.00 0.00 0.00 67 1021.2
20180922161605 76 180 1.0 4.0 0.00 0.00 0.00 69 1021.2
20180922161048 75 270 1.0 5.0 0.00 0.00 0.00 66 1021.2
20180922160547 75 22 2.0 5.0 0.00 0.00 0.00 65 1021.2
20180922160041 76 68 1.0 3.0 0.00 0.00 0.00 67 1021.2
20180922155521 75 135 2.0 5.0 0.00 0.00 0.00 67 1021.0
20180922155012 75 180 1.0 5.0 0.00 0.00 0.00 69 1021.0
20180922154503 75 90 2.0 5.0 0.00 0.00 0.00 69 1021.0
20180922153944 74 180 2.0 5.0 0.00 0.00 0.00 70 1021.0
20180922153439 75 112 1.0 3.0 0.00 0.00 0.00 70 1020.8
20180922152938 75 68 1.0 3.0 0.00 0.00 0.00 73 1020.8
20180922152432 75 45 1.0 5.0 0.00 0.00 0.00 73 1020.8
20180922151921 75 112 2.0 5.0 0.00 0.00 0.00 71 1020.8
20180922151411 75 112 2.0 6.0 0.00 0.00 0.00 71 1020.8
20180922150905 76 202 1.0 6.0 0.00 0.00 0.00 70 1020.8
20180922150343 75 270 2.0 4.0 0.00 0.00 0.00 70 1020.8
20180922145836 75 112 1.0 4.0 0.00 0.00 0.00 71 1020.6
20180922145334 75 135 1.0 3.0 0.00 0.00 0.00 74 1020.6
20180922144823 74 135 1.0 5.0 0.00 0.00 0.00 75 1020.6
20180922144321 74 270 2.0 5.0 0.00 0.00 0.00 73 1020.5
20180922143820 74 112 2.0 4.0 0.00 0.00 0.00 72 1020.5
20180922143308 74 112 2.0 4.0 0.00 0.00 0.00 73 1020.4
20180922142730 74 158 2.0 6.0 0.00 0.00 0.00 73 1020.4
20180922142223 74 338 3.0 6.0 0.00 0.00 0.00 75 1020.3
20180922141658 74 22 2.0 5.0 0.00 0.00 0.00 77 1020.3
20180922141122 73 270 2.0 5.0 0.00 0.00 0.00 77 1020.2
20180922140614 73 22 2.0 6.0 0.00 0.00 0.00 77 1020.2
20180922140108 73 22 2.0 6.0 0.00 0.00 0.00 78 1020.2
20180922135652 73 180 2.0 5.0 0.00 0.00 0.00 80 1020.1
20180922135046 73 180 2.0 5.0 0.00 0.00 0.00 79 1020.1
20180922134539 73 0 2.0 5.0 0.00 0.00 0.00 80 1019.9
20180922134017 73 90 2.0 6.0 0.00 0.00 0.00 82 1019.9
20180922133456 73 202 2.0 6.0 0.00 0.00 0.00 82 1019.8
20180922132931 73 225 2.0 5.0 0.00 0.00 0.00 85 1019.8
20180922132421 73 22 0.0 5.0 0.00 0.00 0.00 86 1019.8
20180922131902 73 90 2.0 5.0 0.00 0.00 0.00 85 1019.6
20180922131353 73 225 2.0 4.0 0.00 0.00 0.00 86 1019.6
20180922130848 73 112 2.0 4.0 0.00 0.00 0.00 86 1019.5
20180922130338 73 270 1.0 3.0 0.00 0.00 0.00 87 1019.5
20180922125815 73 202 1.0 4.0 0.00 0.00 0.00 87 1019.3
20180922125254 73 158 2.0 4.0 0.00 0.00 0.00 88 1019.3
20180922124750 72 180 1.0 3.0 0.00 0.00 0.00 89 1019.3
20180922124252 72 225 0.0 3.0 0.00 0.00 0.00 90 1019.4
20180922123744 72 202 1.0 3.0 0.00 0.00 0.00 91 1019.4
20180922123234 72 158 0.0 0.0 0.00 0.00 0.00 92 1019.1
20180922122724 71 158 0.0 2.0 0.00 0.00 0.00 93 1019.1
20180922122214 71 158 0.0 2.0 0.00 0.00 0.00 93 1019.1
20180922121639 71 225 0.0 1.0 0.00 0.00 0.00 93 1019.1
20180922121136 71 112 0.0 3.0 0.00 0.00 0.00 93 1019.0
20180922120624 71 90 0.0 4.0 0.00 0.00 0.00 93 1019.0
20180922120121 71 270 0.0 4.0 0.00 0.00 0.00 93 1019.0
20180922115619 71 180 0.0 2.0 0.00 0.00 0.00 93 1018.9
20180922115046 71 248 0.0 2.0 0.00 0.00 0.00 93 1018.9
20180922114538 70 180 0.0 0.0 0.00 0.00 0.00 93 1018.8
20180922114029 70 202 0.0 0.0 0.00 0.00 0.00 93 1018.8
20180922113519 70 202 0.0 0.0 0.00 0.00 0.00 93 1018.5
20180922112954 70 225 0.0 1.0 0.00 0.00 0.00 93 1018.5
20180922112434 70 225 0.0 1.0 0.00 0.00 0.00 93 1018.5
20180922111925 70 180 0.0 1.0 0.00 0.00 0.00 93 1018.3
20180922111348 70 270 0.0 1.0 0.00 0.00 0.00 93 1018.3
20180922110843 70 202 0.0 0.0 0.00 0.00 0.00 93 1018.3
20180922110322 70 180 0.0 0.0 0.00 0.00 0.00 93 1018.3
20180922105810 70 180 0.0 0.0 0.00 0.00 0.00 93 1018.2
20180922105243 70 180 0.0 0.0 0.00 0.00 0.00 93 1018.2
20180922104743 70 180 0.0 0.0 0.00 0.00 0.00 93 1018.0